This demonstration page uses our WeatherBlox Daily Observations layout. Learn more.

Left ArrowRight Arrow

31.84235, -102.49876

Hourly Observations for March 16, 2018

Temp ( °F °C ) Dew Point ( °F °C ) Humidity (%) Winds ( mph kmh ) Pressure ( in mb ) Visibility ( mi km ) Precip ( " mm )
12:53 am 00:53 Clear 60 15.6 44 6.7 56 56 SSW 15 24 29.70 1006 10 16 0.00 0.00
1:53 am 01:53 Clear 58 14.4 32 0 38 38 WSW 9 15 29.70 1006 10 16 0.00 0.00
2:53 am 02:53 Clear 62 16.7 17 -8.3 17 17 WNW 15 24 29.71 1006 10 16 0.00 0.00
3:53 am 03:53 Clear 59 15 18 -7.8 20 20 WNW 14 22 29.72 1007 10 16 0.00 0.00
4:53 am 04:53 Clear 58 14.4 19 -7.2 22 22 WNW 14 22 29.74 1007 10 16 0.00 0.00
5:53 am 05:53 Clear 55 12.8 19 -7.2 24 24 W 12 19 29.77 1008 10 16 0.00 0.00
6:53 am 06:53 Clear 52 11.1 19 -7.2 27 27 W 10 17 29.80 1009 10 16 0.00 0.00
7:53 am 07:53 Clear 48 8.9 20 -6.7 33 33 W 8 13 29.83 1010 10 16 0.00 0.00
8:53 am 08:53 Sunny 51 10.6 19 -7.2 28 28 WNW 6 9 29.87 1012 10 16 0.00 0.00
9:32 am 09:32 Partly Cloudy 57 13.9 19 -7.2 23 23 NW 7 11 29.91 1013 10 16 0.00 0.00
9:53 am 09:53 Mostly Sunny 60 15.6 19 -7.2 20 20 WNW 8 13 29.89 1012 10 16 0.00 0.00
10:53 am 10:53 Sunny 67 19.4 15 -9.4 13 13 W 15 24 29.88 1012 10 16 0.00 0.00
11:53 am 11:53 Sunny 70 21.1 13 -10.6 11 11 W 12 19 29.88 1012 10 16 0.00 0.00
12:53 pm 12:53 Sunny 72 22.2 7 -13.9 8 8 W 13 20 29.87 1011 10 16 0.00 0.00
1:53 pm 13:53 Sunny 76 24.4 5 -15 6 6 WSW 18 30 29.84 1011 10 16 0.00 0.00
2:53 pm 14:53 Sunny 77 25 3 -16.1 5 5 W 21 33 29.81 1010 10 16 0.00 0.00
3:53 pm 15:53 Sunny 79 26.1 -1 -18.3 4 4 W 20 31 29.79 1009 10 16 0.00 0.00
4:53 pm 16:53 Sunny 79 26.1 3 -16.1 5 5 W 16 26 29.78 1008 10 16 0.00 0.00
5:53 pm 17:53 Sunny 78 25.6 4 -15.6 5 5 WSW 16 26 29.77 1008 10 16 0.00 0.00
6:53 pm 18:53 Sunny 77 25 9 -12.8 7 7 WSW 13 20 29.78 1008 10 16 0.00 0.00
7:53 pm 19:53 Sunny 72 22.2 12 -11.1 10 10 WSW 7 11 29.80 1009 10 16 0.00 0.00
8:53 pm 20:53 Clear 67 19.4 11 -11.7 11 11 W 9 15 29.81 1010 10 16 0.00 0.00
9:53 pm 21:53 Clear 64 17.8 13 -10.6 13 13 S 8 13 29.83 1010 10 16 0.00 0.00
10:53 pm 22:53 Clear 60 15.6 14 -10 16 16 S 7 11 29.84 1011 10 16 0.00 0.00
11:53 pm 23:53 Clear 63 17.2 15 -9.4 15 15 S 6 9 29.82 1010 10 16 0.00 0.00

Powered by AerisWeather